K2LCA-14 Weather Reports


time (UTC)temp
F
wind
direction
speed
knots
gust
knots
rain 1hr
in
rain 24hr
in
rain mn
in
humidity
%
barometer
mb
20260505041600 50 199 7.0 15.6 0.00 0.00 0.00 91 1012.5
20260505041038 50 192 7.0 13.9 0.00 0.00 0.00 91 1012.5
20260505040537 50 144 7.8 17.4 0.00 0.00 0.00 91 1012.5
20260505040050 50 198 7.0 17.4 0.00 0.00 0.00 91 1012.5
20260505035537 50 184 6.1 14.8 0.00 0.00 0.00 91 1012.5
20260505035040 50 165 7.0 16.5 0.00 0.00 0.00 91 1012.5
20260505034546 50 214 7.0 16.5 0.00 0.00 0.00 91 1012.5
20260505034036 50 205 7.0 14.8 0.00 0.00 0.00 91 1012.5
20260505033537 50 172 7.0 14.8 0.00 0.00 0.00 91 1012.4
20260505033045 50 201 7.0 14.8 0.00 0.00 0.00 91 1012.5
20260505032536 50 158 7.0 15.6 0.00 0.00 0.00 91 1012.4
20260505032038 50 182 6.1 15.6 0.00 0.00 0.00 91 1012.4
20260505031543 50 213 7.0 14.8 0.00 0.00 0.00 91 1012.6
20260505031037 50 209 7.0 14.8 0.00 0.00 0.00 90 1012.5
20260505030540 50 203 7.0 15.6 0.00 0.00 0.00 90 1012.7
20260505030055 50 174 7.8 15.6 0.00 0.00 0.00 90 1012.6
20260505025538 50 202 7.0 15.6 0.00 0.00 0.00 90 1012.6
20260505025038 50 188 7.0 15.6 0.00 0.00 0.00 90 1012.6
20260505024547 50 229 6.1 17.4 0.00 0.00 0.00 90 1012.7
20260505024038 50 200 7.8 17.4 0.00 0.00 0.00 90 1012.6
20260505023537 50 209 7.8 18.2 0.00 0.00 0.00 90 1012.5
20260505023053 50 183 7.8 18.2 0.00 0.00 0.00 90 1012.6
20260505022537 50 167 7.0 14.8 0.00 0.00 0.00 90 1012.6
20260505022038 50 204 7.8 14.8 0.00 0.00 0.00 90 1012.5
20260505021552 50 211 7.8 16.5 0.00 0.00 0.00 90 1012.6
20260505021037 50 189 6.1 16.5 0.00 0.00 0.00 90 1012.7
20260505020539 50 167 7.0 15.6 0.00 0.00 0.00 90 1012.6
20260505020053 50 201 7.0 13.9 0.00 0.00 0.00 90 1012.6
20260505015537 50 216 7.0 13.9 0.00 0.00 0.00 90 1012.6
20260505015037 50 204 6.1 15.6 0.00 0.00 0.00 90 1012.5
20260505014545 50 192 7.0 15.6 0.00 0.00 0.00 90 1012.5
20260505014036 50 206 5.2 15.6 0.00 0.00 0.00 90 1012.5
20260505013538 50 182 6.1 15.6 0.00 0.00 0.00 90 1012.6
20260505013043 50 202 6.1 12.2 0.00 0.00 0.00 89 1012.6
20260505012538 50 198 6.1 13.0 0.00 0.00 0.00 89 1012.4
20260505012038 50 210 4.3 13.9 0.00 0.00 0.00 88 1012.4
20260505011547 50 225 6.1 13.9 0.00 0.00 0.00 88 1012.4
20260505011037 50 249 4.3 12.2 0.00 0.00 0.00 88 1012.3
20260505010539 50 217 5.2 12.2 0.00 0.00 0.00 88 1012.2
20260505010103 50 186 4.3 15.6 0.00 0.00 0.00 87 1012.0
20260505005535 50 265 6.1 16.5 0.00 0.00 0.00 87 1012.0
20260505005040 51 209 5.2 16.5 0.00 0.00 0.00 87 1011.9
20260505004547 51 169 6.1 15.6 0.00 0.00 0.00 86 1011.6
20260505004038 51 252 7.0 16.5 0.00 0.00 0.00 86 1011.5
20260505003537 51 293 7.0 16.5 0.00 0.00 0.00 86 1011.5
20260505003050 51 169 6.1 20.0 0.00 0.00 0.00 86 1011.4
20260505002537 51 219 7.8 20.0 0.00 0.00 0.00 86 1011.4
20260505002037 51 191 7.8 16.5 0.00 0.00 0.00 85 1011.2
20260505001545 51 202 7.0 20.0 0.00 0.00 0.00 85 1011.2
20260505001036 51 218 7.8 20.0 0.00 0.00 0.00 84 1011.1
20260505000536 51 227 7.0 17.4 0.00 0.00 0.00 84 1011.1
20260505000051 51 167 5.2 14.8 0.00 0.00 0.00 83 1011.1
20260504235540 51 192 8.7 18.2 0.00 0.00 0.00 83 1011.0
20260504235036 51 200 6.1 18.2 0.00 0.00 0.00 82 1011.0
20260504234542 51 161 7.8 16.5 0.00 0.00 0.00 82 1011.1
20260504234035 51 190 8.7 16.5 0.00 0.00 0.00 82 1011.0
20260504233534 51 196 9.6 16.5 0.00 0.00 0.00 81 1010.9
20260504233052 52 192 7.8 18.2 0.00 0.00 0.00 81 1010.9
20260504232538 52 200 7.8 19.1 0.00 0.00 0.00 80 1010.9
20260504232038 52 198 7.8 19.1 0.00 0.00 0.00 80 1010.9
20260504231547 52 180 8.7 17.4 0.00 0.00 0.00 80 1010.8
20260504231038 52 194 7.0 17.4 0.00 0.00 0.00 79 1010.9
20260504230537 52 199 7.8 17.4 0.00 0.00 0.00 79 1010.9
20260504230104 52 193 7.0 13.9 0.00 0.00 0.00 79 1010.8
20260504225543 53 204 7.0 18.2 0.00 0.00 0.00 79 1010.9
20260504225039 53 184 7.8 18.2 0.00 0.00 0.00 79 1010.9
20260504224558 53 165 7.0 16.5 0.00 0.00 0.00 79 1010.9
20260504224038 53 196 6.1 18.2 0.00 0.00 0.00 79 1010.8
20260504223539 53 189 7.0 18.2 0.00 0.00 0.00 79 1010.9
20260504223040 53 226 7.0 18.2 0.00 0.00 0.00 78 1010.9
20260504222538 53 195 9.6 16.5 0.00 0.00 0.00 78 1010.9
20260504222036 53 192 7.8 17.4 0.00 0.00 0.00 78 1010.9
20260504221542 53 299 6.1 18.2 0.00 0.00 0.00 78 1010.9
20260504221035 53 227 7.0 21.7 0.00 0.00 0.00 78 1011.0
20260504220537 53 236 10.4 21.7 0.00 0.00 0.00 78 1011.0
20260504220051 53 194 10.4 19.1 0.00 0.00 0.00 78 1010.9
20260504215536 53 235 9.6 20.0 0.00 0.00 0.00 77 1010.9
20260504215040 54 195 7.8 20.0 0.00 0.00 0.00 77 1011.0
20260504214547 54 336 7.0 18.2 0.00 0.00 0.00 77 1010.9
20260504214037 54 225 8.7 18.2 0.00 0.00 0.00 76 1010.9
20260504213536 54 175 7.0 17.4 0.00 0.00 0.00 75 1010.9
20260504213043 54 259 6.1 17.4 0.00 0.00 0.00 76 1011.0
20260504212535 54 169 6.1 15.6 0.00 0.00 0.00 76 1011.1
20260504212040 54 204 7.0 15.6 0.00 0.00 0.00 76 1011.1
20260504211542 55 187 6.1 15.6 0.00 0.00 0.00 76 1011.1
20260504211037 54 236 5.2 20.0 0.00 0.00 0.00 76 1011.2
20260504210540 54 187 7.0 20.0 0.00 0.00 0.00 76 1011.1
20260504210054 55 222 7.0 15.6 0.00 0.00 0.00 76 1011.1
20260504205536 55 167 7.0 15.6 0.00 0.00 0.00 75 1011.0
20260504205035 55 209 6.1 13.9 0.00 0.00 0.00 76 1011.0
20260504204551 55 164 6.1 19.1 0.00 0.00 0.00 76 1011.0
20260504204038 55 175 7.8 20.0 0.00 0.00 0.00 75 1010.9
20260504203538 55 187 6.1 20.0 0.00 0.00 0.00 76 1011.0
20260504203047 55 68 7.0 20.0 0.00 0.00 0.00 76 1010.9
20260504202537 55 216 7.8 20.0 0.00 0.00 0.00 75 1010.8
20260504202037 55 227 6.1 15.6 0.00 0.00 0.00 76 1010.9
20260504201548 55 161 6.1 21.7 0.00 0.00 0.00 76 1011.1
20260504201037 55 190 5.2 21.7 0.00 0.00 0.00 78 1011.1
20260504200537 54 196 7.8 17.4 0.00 0.00 0.00 77 1011.0
20260504200052 55 187 7.0 17.4 0.00 0.00 0.00 76 1011.0
20260504195538 55 196 7.8 17.4 0.00 0.00 0.00 76 1011.0
20260504195036 55 279 5.2 17.4 0.00 0.00 0.00 77 1010.9
20260504194541 55 196 6.1 17.4 0.00 0.00 0.00 77 1011.0
20260504194038 55 9 7.0 16.5 0.00 0.00 0.00 76 1011.0
20260504193537 55 223 6.1 14.8 0.00 0.00 0.00 77 1011.1
20260504193050 55 300 7.8 18.2 0.00 0.00 0.00 76 1011.2
20260504192537 55 260 7.8 18.2 0.00 0.00 0.00 76 1011.2
20260504192038 55 178 7.0 17.4 0.00 0.00 0.00 76 1011.2
20260504191604 55 214 7.0 18.2 0.00 0.00 0.00 76 1011.3
20260504191039 55 335 8.7 18.2 0.00 0.00 0.00 74 1011.4
20260504190536 56 165 3.5 13.9 0.00 0.00 0.00 76 1011.3
20260504190047 55 213 7.0 17.4 0.00 0.00 0.00 76 1011.3
20260504185537 55 222 7.8 18.2 0.00 0.00 0.00 76 1011.4
20260504185037 55 167 7.0 18.2 0.00 0.00 0.00 76 1011.4
20260504184543 55 222 7.8 18.2 0.00 0.00 0.00 76 1011.5
20260504184037 55 240 7.0 16.5 0.00 0.00 0.00 77 1011.4
20260504183537 55 197 7.8 16.5 0.00 0.00 0.00 77 1011.5
20260504183043 55 146 7.0 16.5 0.00 0.00 0.00 78 1011.6
20260504182537 55 238 7.0 16.5 0.00 0.00 0.00 79 1011.5
20260504182036 55 157 7.8 14.8 0.00 0.00 0.00 79 1011.5
20260504181546 55 286 6.1 14.8 0.00 0.00 0.00 80 1011.7
20260504181036 55 214 6.1 20.0 0.00 0.00 0.00 79 1011.7
20260504180538 55 240 6.1 20.0 0.00 0.00 0.00 81 1011.7
20260504180047 55 191 6.1 14.8 0.00 0.00 0.00 81 1011.8
20260504175537 55 257 6.1 18.2 0.00 0.00 0.00 81 1011.9
20260504175038 55 223 6.1 20.0 0.00 0.00 0.00 81 1011.8
20260504174551 54 268 7.8 20.0 0.00 0.00 0.00 81 1011.9
20260504174037 54 268 7.0 16.5 0.00 0.00 0.00 82 1011.9
20260504173537 54 192 7.8 16.5 0.00 0.00 0.00 82 1011.9
20260504173049 54 270 6.1 14.8 0.00 0.00 0.00 82 1012.1
20260504172535 54 219 7.0 15.6 0.00 0.00 0.00 81 1012.2
20260504172034 54 200 7.0 15.6 0.00 0.00 0.00 82 1012.2
20260504171542 54 241 7.0 16.5 0.00 0.00 0.00 82 1012.2
20260504171034 54 194 7.8 16.5 0.00 0.00 0.00 82 1012.1
20260504170535 54 199 7.8 16.5 0.00 0.00 0.00 81 1012.1
20260504151037 54 253 7.8 19.1 0.00 0.00 0.00 78 1012.7
20260504150536 54 243 6.1 19.1 0.00 0.00 0.00 78 1012.6
20260504141037 53 199 7.8 14.8 0.00 0.00 0.00 79 1013.1
20260504140537 53 254 7.8 15.6 0.00 0.00 0.00 79 1013.1
20260504130537 52 266 5.2 13.9 0.00 0.00 0.00 79 1013.2
20260504110537 49 210 6.1 14.8 0.00 0.00 0.00 85 1013.1
20260504100536 49 271 7.0 13.9 0.00 0.00 0.00 77 1012.6
20260504081552 46 265 1.7 6.1 0.00 0.00 0.00 89 1012.2
20260504081038 47 190 1.7 6.1 0.00 0.00 0.00 89 1012.2
20260504080537 46 193 0.9 6.1 0.00 0.00 0.00 90 1012.1
20260504050536 47 264 3.5 8.7 0.00 0.00 0.00 87 1011.5
20260504045535 46 221 2.6 7.0 0.00 0.00 0.00 87 1011.6
20260504045038 46 184 2.6 7.0 0.00 0.00 0.00 87 1011.6
20260504044544 46 284 2.6 7.0 0.00 0.00 0.00 87 1011.7
20260504044036 47 227 3.5 8.7 0.00 0.00 0.00 87 1011.7
20260504043538 47 183 3.5 9.6 0.00 0.00 0.00 87 1011.7
20260504043102 47 219 2.6 9.6 0.00 0.00 0.00 87 1011.8